Time,TemperatureF,DewpointF,PressureIn,WindDirection,WindDirectionDegrees,WindSpeedMPH,WindSpeedGustMPH,Humidity,HourlyPrecipIn,Conditions,Clouds,dailyrainin,SoftwareType,DateUTC
2013-11-17 00:23:00,47.0,46.0,30.10,SE,142,1.0,7.0,96,0.00,,,0.01,,2013-11-17 05:23:00,
2013-11-17 00:34:00,47.0,46.0,30.10,SE,142,1.0,7.0,96,0.00,,,0.01,,2013-11-17 05:34:00,
2013-11-17 00:44:00,47.0,46.0,30.10,SE,142,1.0,7.0,96,0.00,,,0.01,,2013-11-17 05:44:00,
2013-11-17 00:53:00,47.0,46.0,30.10,SE,142,1.0,7.0,96,0.00,,,0.01,,2013-11-17 05:53:00,
2013-11-17 01:13:00,47.0,46.0,30.11,SE,143,2.0,10.0,95,0.00,,,0.01,,2013-11-17 06:13:00,
2013-11-17 01:23:00,47.0,46.0,30.11,SE,143,2.0,10.0,95,0.00,,,0.01,,2013-11-17 06:23:00,
2013-11-17 01:32:00,47.0,46.0,30.11,SE,143,2.0,10.0,95,0.00,,,0.01,,2013-11-17 06:32:00,
2013-11-17 01:52:00,47.0,45.0,30.08,North,0,0.0,5.0,94,0.00,,,0.01,,2013-11-17 06:52:00,
2013-11-17 02:03:00,47.0,45.0,30.08,North,0,0.0,5.0,94,0.00,,,0.01,,2013-11-17 07:03:00,
2013-11-17 02:22:00,47.0,45.0,30.09,North,0,0.0,8.0,94,0.00,,,0.01,,2013-11-17 07:22:00,
2013-11-17 02:42:00,47.0,45.0,30.08,North,0,0.0,4.0,94,0.00,,,0.01,,2013-11-17 07:42:00,
2013-11-17 02:53:00,47.0,45.0,30.08,North,0,0.0,4.0,94,0.00,,,0.01,,2013-11-17 07:53:00,
2013-11-17 03:01:00,48.0,46.0,30.07,North,0,0.0,7.0,93,0.00,,,0.01,,2013-11-17 08:01:00,
2013-11-17 03:02:00,47.0,45.0,30.08,North,0,0.0,4.0,94,0.00,,,0.01,,2013-11-17 08:02:00,
2013-11-17 03:22:00,48.0,46.0,30.07,North,0,0.0,7.0,93,0.00,,,0.01,,2013-11-17 08:22:00,
2013-11-17 03:32:00,48.0,46.0,30.07,North,0,0.0,7.0,93,0.00,,,0.01,,2013-11-17 08:32:00,
2013-11-17 03:42:00,48.0,46.0,30.07,North,0,0.0,7.0,93,0.00,,,0.01,,2013-11-17 08:42:00,
2013-11-17 03:52:00,48.0,46.0,30.07,North,0,0.0,7.0,93,0.00,,,0.01,,2013-11-17 08:52:00,
2013-11-17 04:22:00,48.0,46.0,30.05,SE,130,1.0,4.0,92,0.00,,,0.01,,2013-11-17 09:22:00,
2013-11-17 04:43:00,48.0,46.0,30.04,North,0,0.0,4.0,92,0.00,,,0.01,,2013-11-17 09:43:00,
2013-11-17 04:54:00,48.0,46.0,30.04,SSW,194,1.0,4.0,93,0.00,,,0.01,,2013-11-17 09:54:00,
2013-11-17 05:23:00,48.0,46.0,30.04,SSW,204,1.0,5.0,92,0.00,,,0.01,,2013-11-17 10:23:00,
2013-11-17 05:33:00,48.0,46.0,30.04,SSW,204,1.0,5.0,92,0.00,,,0.01,,2013-11-17 10:33:00,
2013-11-17 05:53:00,48.0,46.0,30.06,North,0,0.0,7.0,93,0.00,,,0.00,,2013-11-17 10:53:00,
2013-11-17 06:23:00,48.0,46.0,30.06,North,0,0.0,4.0,93,0.00,,,0.00,,2013-11-17 11:23:00,
2013-11-17 06:43:00,48.0,46.0,30.06,North,0,0.0,3.0,93,0.00,,,0.00,,2013-11-17 11:43:00,
2013-11-17 06:52:00,48.0,46.0,30.06,North,0,0.0,3.0,93,0.00,,,0.00,,2013-11-17 11:52:00,
2013-11-17 07:22:00,49.0,47.0,30.06,North,0,0.0,1.0,93,0.00,,,0.00,,2013-11-17 12:22:00,
2013-11-17 07:42:00,49.0,47.0,30.06,SSW,213,1.0,4.0,93,0.00,,,0.00,,2013-11-17 12:42:00,
2013-11-17 07:52:00,49.0,47.0,30.06,SSW,213,1.0,4.0,93,0.00,,,0.00,,2013-11-17 12:52:00,
2013-11-17 08:22:00,50.0,47.0,30.06,North,0,0.0,4.0,91,0.00,,,0.00,,2013-11-17 13:22:00,
2013-11-17 08:52:00,51.0,49.0,30.05,North,0,0.0,3.0,92,0.00,,,0.00,,2013-11-17 13:52:00,
2013-11-17 09:22:00,52.0,49.0,30.04,North,0,0.0,2.0,90,0.00,,,0.00,,2013-11-17 14:22:00,
2013-11-17 09:42:00,54.0,50.0,30.04,North,0,0.0,5.0,87,0.00,,,0.00,,2013-11-17 14:42:00,
2013-11-17 09:52:00,54.0,50.0,30.04,North,0,0.0,5.0,87,0.00,,,0.00,,2013-11-17 14:52:00,
2013-11-17 10:22:00,56.0,51.0,30.03,North,0,0.0,5.0,82,0.00,,,0.00,,2013-11-17 15:22:00,
2013-11-17 10:43:00,56.0,50.0,30.02,SE,124,1.0,7.0,81,0.00,,,0.00,,2013-11-17 15:43:00,
2013-11-17 10:54:00,56.0,50.0,30.02,SE,124,1.0,7.0,81,0.00,,,0.00,,2013-11-17 15:54:00,
2013-11-17 11:23:00,57.0,51.0,30.02,SSE,151,1.0,7.0,79,0.00,,,0.00,,2013-11-17 16:23:00,
2013-11-17 11:33:00,57.0,51.0,30.02,SSE,151,1.0,7.0,79,0.00,,,0.00,,2013-11-17 16:33:00,
2013-11-17 11:42:00,57.0,51.0,30.02,SSE,151,1.0,7.0,79,0.00,,,0.00,,2013-11-17 16:42:00,
2013-11-17 11:53:00,57.0,51.0,30.00,North,0,0.0,5.0,81,0.00,,,0.00,,2013-11-17 16:53:00,
2013-11-17 12:03:00,57.0,51.0,30.00,North,0,0.0,5.0,81,0.00,,,0.00,,2013-11-17 17:03:00,
2013-11-17 12:22:00,56.0,51.0,29.98,SE,143,1.0,3.0,84,0.00,,,0.00,,2013-11-17 17:22:00,
2013-11-17 12:34:00,56.0,51.0,29.98,SE,143,1.0,3.0,84,0.00,,,0.00,,2013-11-17 17:34:00,
2013-11-17 12:53:00,56.0,51.0,29.98,North,0,0.0,5.0,84,0.00,,,0.00,,2013-11-17 17:53:00,
2013-11-17 13:23:00,55.0,51.0,29.96,North,0,0.0,6.0,87,0.00,,,0.00,,2013-11-17 18:23:00,
2013-11-17 13:52:00,56.0,52.0,29.96,ESE,115,2.0,5.0,87,0.00,,,0.00,,2013-11-17 18:52:00,
2013-11-17 14:22:00,56.0,53.0,29.93,SE,124,1.0,5.0,90,0.01,,,0.01,,2013-11-17 19:22:00,
2013-11-17 14:52:00,56.0,53.0,29.92,ESE,106,4.0,8.0,89,0.01,,,0.01,,2013-11-17 19:52:00,
2013-11-17 15:02:00,56.0,53.0,29.92,ESE,106,4.0,8.0,89,0.01,,,0.01,,2013-11-17 20:02:00,
2013-11-17 15:22:00,56.0,52.0,29.91,ESE,112,2.0,9.0,87,0.00,,,0.01,,2013-11-17 20:22:00,
2013-11-17 15:32:00,56.0,52.0,29.91,ESE,112,2.0,9.0,87,0.00,,,0.01,,2013-11-17 20:32:00,
2013-11-17 15:43:00,56.0,52.0,29.91,ESE,112,2.0,9.0,87,0.00,,,0.01,,2013-11-17 20:43:00,
2013-11-17 15:52:00,55.0,52.0,29.89,ESE,123,3.0,8.0,88,0.00,,,0.01,,2013-11-17 20:52:00,
2013-11-17 16:22:00,54.0,51.0,29.88,SSE,152,1.0,12.0,89,0.00,,,0.01,,2013-11-17 21:22:00,
2013-11-17 16:55:00,54.0,51.0,29.86,ESE,113,5.0,9.0,89,0.00,,,0.01,,2013-11-17 21:55:00,
2013-11-17 17:24:00,54.0,51.0,29.85,SE,125,2.0,8.0,89,0.00,,,0.01,,2013-11-17 22:24:00,
2013-11-17 17:43:00,54.0,51.0,29.84,North,0,0.0,8.0,90,0.00,,,0.01,,2013-11-17 22:43:00,
2013-11-17 17:53:00,54.0,51.0,29.84,North,0,0.0,8.0,90,0.00,,,0.01,,2013-11-17 22:53:00,
2013-11-17 18:03:00,54.0,51.0,29.84,North,0,0.0,8.0,90,0.00,,,0.01,,2013-11-17 23:03:00,
2013-11-17 18:23:00,54.0,51.0,29.82,South,187,2.0,8.0,90,0.00,,,0.01,,2013-11-17 23:23:00,
2013-11-17 18:33:00,54.0,51.0,29.82,South,187,2.0,8.0,90,0.00,,,0.01,,2013-11-17 23:33:00,
2013-11-17 18:52:00,54.0,51.0,29.81,East,80,1.0,6.0,90,0.00,,,0.01,,2013-11-17 23:52:00,
2013-11-17 19:11:00,54.0,51.0,29.80,ESE,123,3.0,9.0,90,0.00,,,0.01,,2013-11-18 00:11:00,
2013-11-17 19:22:00,54.0,51.0,29.80,ESE,123,3.0,9.0,90,0.00,,,0.01,,2013-11-18 00:22:00,
2013-11-17 19:52:00,54.0,52.0,29.76,ESE,117,2.0,11.0,92,0.00,,,0.01,,2013-11-18 00:52:00,
2013-11-17 20:11:00,53.0,51.0,29.75,ESE,117,4.0,11.0,92,0.00,,,0.01,,2013-11-18 01:11:00,
2013-11-17 20:22:00,53.0,51.0,29.75,ESE,117,4.0,11.0,92,0.00,,,0.01,,2013-11-18 01:22:00,
2013-11-17 20:42:00,53.0,51.0,29.72,SE,136,2.0,11.0,92,0.00,,,0.01,,2013-11-18 01:42:00,
2013-11-17 20:52:00,53.0,51.0,29.72,SE,136,2.0,11.0,92,0.00,,,0.01,,2013-11-18 01:52:00,
2013-11-17 21:01:00,53.0,51.0,29.72,SE,136,2.0,11.0,92,0.00,,,0.01,,2013-11-18 02:01:00,
2013-11-17 21:22:00,54.0,52.0,29.69,SE,135,4.0,11.0,92,0.00,,,0.01,,2013-11-18 02:22:00,
2013-11-17 21:32:00,54.0,52.0,29.69,SE,135,4.0,11.0,92,0.00,,,0.01,,2013-11-18 02:32:00,
2013-11-17 21:52:00,55.0,52.0,29.67,SE,132,5.0,19.0,91,0.00,,,0.01,,2013-11-18 02:52:00,
2013-11-17 22:11:00,55.0,53.0,29.66,SSW,195,3.0,10.0,92,0.01,,,0.02,,2013-11-18 03:11:00,
2013-11-17 22:22:00,55.0,53.0,29.66,SSW,195,3.0,10.0,92,0.01,,,0.02,,2013-11-18 03:22:00,
2013-11-17 22:44:00,54.0,52.0,29.65,ESE,113,4.0,13.0,94,0.04,,,0.05,,2013-11-18 03:44:00,
2013-11-17 22:54:00,54.0,52.0,29.65,ESE,113,4.0,13.0,94,0.04,,,0.05,,2013-11-18 03:54:00,
2013-11-17 23:03:00,54.0,52.0,29.65,ESE,113,4.0,13.0,94,0.04,,,0.05,,2013-11-18 04:03:00,
2013-11-17 23:13:00,54.0,52.0,29.65,ESE,113,4.0,13.0,94,0.04,,,0.05,,2013-11-18 04:13:00,
2013-11-17 23:42:00,55.0,54.0,29.61,SSE,162,2.0,10.0,95,0.01,,,0.06,,2013-11-18 04:42:00,
2013-11-17 23:52:00,52.0,46.0,29.72,SW,233,13.0,31.0,81,0.06,,,0.12,,2013-11-18 04:52:00,
2013-11-17 23:53:00,55.0,54.0,29.61,SSE,162,2.0,10.0,95,0.01,,,0.06,,2013-11-18 04:53:00,